Hourly Weather Enilchek

Today, 4 July, Saturday

Time Temperature Precipitation Wind Pressure Humidity
00:00 +7°C° 0 mm 1 mps 514 mmHg 64%
01:00 +7°C° 0 mm 1 mps 514 mmHg 64%
02:00 +7°C° 0 mm 1 mps 513 mmHg 63%
03:00 +7°C° 0 mm 1 mps 513 mmHg 62%
04:00 +7°C° 0 mm 1 mps 513 mmHg 60%
05:00 +7°C° 0 mm 1 mps 513 mmHg 59%
06:00 +8°C° 0 mm 1 mps 514 mmHg 50%
07:00 +9°C° 0 mm 1 mps 515 mmHg 42%
08:00 +11°C° 0 mm 1 mps 516 mmHg 34%
09:00 +12°C° 0 mm 2 mps 516 mmHg 30%
10:00 +13°C° 0 mm 2 mps 516 mmHg 26%
11:00 +13°C° 0 mm 3 mps 517 mmHg 22%
12:00 +14°C° 0.1 mm 3 mps 517 mmHg 23%
13:00 +14°C° 0.1 mm 3 mps 517 mmHg 24%
14:00 +15°C° 0.1 mm 4 mps 517 mmHg 25%
15:00 +14°C° 0.2 mm 4 mps 517 mmHg 27%
16:00 +14°C° 0.2 mm 4 mps 516 mmHg 29%
17:00 +13°C° 0.2 mm 4 mps 516 mmHg 31%
18:00 +12°C° 0.1 mm 3 mps 516 mmHg 37%
19:00 +11°C° 0.1 mm 3 mps 515 mmHg 43%
20:00 +10°C° 0.1 mm 2 mps 515 mmHg 49%
21:00 +9°C° 0 mm 2 mps 514 mmHg 52%
22:00 +8°C° 0 mm 2 mps 514 mmHg 56%
23:00 +8°C° 0 mm 2 mps 514 mmHg 59%

Tomorrow, 5 July, Sunday

Time Temperature Precipitation Wind Pressure Humidity
00:00 +8°C° 0 mm 1 mps 513 mmHg 61%
01:00 +8°C° 0 mm 1 mps 513 mmHg 62%
02:00 +7°C° 0 mm 1 mps 512 mmHg 64%
03:00 +7°C° 0 mm 1 mps 512 mmHg 63%
04:00 +7°C° 0 mm 1 mps 512 mmHg 62%
05:00 +7°C° 0 mm 1 mps 512 mmHg 61%
06:00 +8°C° 0 mm 1 mps 513 mmHg 55%
07:00 +9°C° 0 mm 1 mps 513 mmHg 50%
08:00 +11°C° 0 mm 1 mps 514 mmHg 44%
09:00 +11°C° 0.1 mm 1 mps 514 mmHg 46%
10:00 +12°C° 0.1 mm 2 mps 514 mmHg 47%
11:00 +11°C° 0.1 mm 3 mps 514 mmHg 49%
12:00 +12°C° 0.6 mm 2 mps 514 mmHg 53%
13:00 +10°C° 0.6 mm 2 mps 513 mmHg 58%
14:00 +10°C° 0.6 mm 1 mps 512 mmHg 62%
15:00 +10°C° 0.9 mm 2 mps 513 mmHg 62%
16:00 +10°C° 0.9 mm 2 mps 513 mmHg 62%
17:00 +10°C° 0.9 mm 2 mps 513 mmHg 61%
18:00 +9°C° 0.1 mm 2 mps 513 mmHg 65%
19:00 +8°C° 0.1 mm 2 mps 513 mmHg 69%
20:00 +8°C° 0.1 mm 2 mps 512 mmHg 73%
21:00 +8°C° 0 mm 1 mps 512 mmHg 73%
22:00 +8°C° 0 mm 1 mps 512 mmHg 74%
23:00 +8°C° 0 mm 1 mps 512 mmHg 74%

Day after tomorrow, 6 July, Monday

Time Temperature Precipitation Wind Pressure Humidity
00:00 +8°C° 0 mm 1 mps 512 mmHg 72%
01:00 +8°C° 0 mm 1 mps 512 mmHg 69%
02:00 +7°C° 0 mm 0 mps 511 mmHg 67%
03:00 +7°C° 0 mm 0 mps 511 mmHg 64%
04:00 +7°C° 0 mm 0 mps 512 mmHg 61%
05:00 +7°C° 0 mm 0 mps 512 mmHg 59%
06:00 +9°C° 0 mm 1 mps 512 mmHg 53%
07:00 +10°C° 0 mm 1 mps 513 mmHg 47%
08:00 +11°C° 0 mm 1 mps 514 mmHg 41%
09:00 +12°C° 0.3 mm 2 mps 514 mmHg 44%
10:00 +11°C° 0.3 mm 3 mps 514 mmHg 47%
11:00 +11°C° 0.3 mm 3 mps 514 mmHg 51%
12:00 +10°C° 1.3 mm 3 mps 514 mmHg 53%
13:00 +10°C° 1.3 mm 3 mps 513 mmHg 56%
14:00 +9°C° 1.3 mm 3 mps 513 mmHg 58%
15:00 +9°C° 0.5 mm 3 mps 513 mmHg 55%
16:00 +10°C° 0.5 mm 3 mps 514 mmHg 52%
17:00 +10°C° 0.5 mm 3 mps 514 mmHg 50%
18:00 +9°C° 0.1 mm 3 mps 514 mmHg 55%
19:00 +8°C° 0.1 mm 2 mps 514 mmHg 60%
20:00 +7°C° 0.1 mm 2 mps 513 mmHg 66%
21:00 +7°C° 0 mm 2 mps 513 mmHg 67%
22:00 +8°C° 0 mm 1 mps 513 mmHg 69%
23:00 +7°C° 0 mm 1 mps 513 mmHg 70%

7 July, Tuesday

Time Temperature Precipitation Wind Pressure Humidity
00:00 +7°C° 0 mm 1 mps 513 mmHg 70%
01:00 +7°C° 0 mm 1 mps 513 mmHg 70%
02:00 +6°C° 0 mm 1 mps 512 mmHg 69%
03:00 +6°C° 0 mm 1 mps 512 mmHg 68%
04:00 +6°C° 0 mm 1 mps 513 mmHg 68%
05:00 +6°C° 0 mm 1 mps 513 mmHg 67%
06:00 +8°C° 0 mm 1 mps 513 mmHg 59%
07:00 +9°C° 0 mm 1 mps 514 mmHg 52%
08:00 +10°C° 0 mm 1 mps 515 mmHg 44%
09:00 +11°C° 0 mm 1 mps 515 mmHg 39%
10:00 +12°C° 0 mm 1 mps 516 mmHg 33%
11:00 +14°C° 0 mm 1 mps 517 mmHg 28%
12:00 +15°C° 0 mm 1 mps 517 mmHg 26%
13:00 +15°C° 0 mm 2 mps 517 mmHg 24%
14:00 +16°C° 0 mm 2 mps 518 mmHg 23%
15:00 +16°C° 0 mm 2 mps 518 mmHg 25%
16:00 +16°C° 0 mm 3 mps 518 mmHg 26%
17:00 +17°C° 0 mm 3 mps 518 mmHg 28%
18:00 +14°C° 0 mm 3 mps 518 mmHg 34%
19:00 +14°C° 0 mm 2 mps 517 mmHg 40%
20:00 +13°C° 0 mm 2 mps 517 mmHg 46%
21:00 +12°C° 0 mm 1 mps 516 mmHg 48%
22:00 +11°C° 0 mm 1 mps 516 mmHg 50%
23:00 +11°C° 0 mm 1 mps 515 mmHg 52%

8 July, Wednesday

Time Temperature Precipitation Wind Pressure Humidity
00:00 +10°C° 0 mm 1 mps 515 mmHg 53%
01:00 +9°C° 0 mm 0 mps 515 mmHg 54%
02:00 +8°C° 0 mm 0 mps 515 mmHg 56%
03:00 +8°C° 0 mm 0 mps 515 mmHg 54%
04:00 +8°C° 0 mm 0 mps 514 mmHg 53%
05:00 +9°C° 0 mm 1 mps 514 mmHg 52%
06:00 +11°C° 0 mm 1 mps 516 mmHg 43%
07:00 +13°C° 0 mm 1 mps 517 mmHg 35%
08:00 +14°C° 0 mm 1 mps 518 mmHg 26%
09:00 +16°C° 0 mm 2 mps 518 mmHg 23%
10:00 +17°C° 0 mm 2 mps 519 mmHg 20%
11:00 +18°C° 0 mm 2 mps 519 mmHg 16%
12:00 +18°C° 0 mm 3 mps 519 mmHg 20%
13:00 +18°C° 0 mm 4 mps 519 mmHg 23%
14:00 +18°C° 0 mm 4 mps 519 mmHg 26%
15:00 +15°C° 0.2 mm 4 mps 517 mmHg 37%
16:00 +13°C° 0.2 mm 3 mps 516 mmHg 47%
17:00 +11°C° 0.2 mm 3 mps 515 mmHg 57%
18:00 +11°C° 0.1 mm 3 mps 515 mmHg 59%
19:00 +12°C° 0.1 mm 2 mps 515 mmHg 61%
20:00 +10°C° 0.1 mm 2 mps 515 mmHg 63%
21:00 +10°C° 0 mm 2 mps 515 mmHg 63%
22:00 +10°C° 0 mm 2 mps 515 mmHg 62%
23:00 +11°C° 0 mm 1 mps 515 mmHg 62%

9 July, Thursday

Time Temperature Precipitation Wind Pressure Humidity
00:00 +11°C° 0 mm 1 mps 514 mmHg 62%
01:00 +10°C° 0 mm 1 mps 514 mmHg 61%
02:00 +10°C° 0 mm 1 mps 513 mmHg 60%
03:00 +10°C° 0 mm 1 mps 513 mmHg 60%
04:00 +9°C° 0 mm 0 mps 513 mmHg 61%
05:00 +9°C° 0 mm 0 mps 513 mmHg 61%
06:00 +10°C° 0 mm 0 mps 513 mmHg 54%
07:00 +12°C° 0 mm 1 mps 514 mmHg 47%
08:00 +14°C° 0 mm 1 mps 515 mmHg 40%
09:00 +15°C° 0 mm 1 mps 515 mmHg 38%
10:00 +15°C° 0 mm 1 mps 515 mmHg 36%
11:00 +16°C° 0 mm 2 mps 515 mmHg 34%
12:00 +15°C° 0.5 mm 2 mps 514 mmHg 43%
13:00 +14°C° 0.5 mm 2 mps 513 mmHg 51%
14:00 +13°C° 0.5 mm 2 mps 512 mmHg 60%
15:00 +12°C° 0.5 mm 2 mps 512 mmHg 63%
16:00 +12°C° 0.5 mm 2 mps 512 mmHg 66%
17:00 +10°C° 0.5 mm 2 mps 512 mmHg 69%
18:00 +10°C° 0.1 mm 2 mps 512 mmHg 69%
19:00 +11°C° 0.1 mm 1 mps 512 mmHg 69%
20:00 +11°C° 0.1 mm 1 mps 513 mmHg 69%
21:00 +11°C° 0 mm 1 mps 513 mmHg 69%
22:00 +11°C° 0 mm 1 mps 513 mmHg 69%
23:00 +11°C° 0 mm 1 mps 513 mmHg 69%
Show more